owner,sensor,date,latitude,longitude,vertical_datum,wind_speed,wind_to_direction,wind_speed_of_gust,qcFlag 
TCOON,ioos:station:TCOON:068:1,2016-12-01T00:00:00Z,27.2970,-97.4049,0.0,5.6,54.0,6.4,'11111222,11111222,11111222' 
TCOON,ioos:station:TCOON:068:1,2016-12-01T00:06:00Z,27.2970,-97.4049,0.0,6.2,57.0,6.8,'11111222,11111222,11111222' 
TCOON,ioos:station:TCOON:068:1,2016-12-01T00:12:00Z,27.2970,-97.4049,0.0,5.5,56.0,6.4,'11111222,11111222,11111222' 
TCOON,ioos:station:TCOON:068:1,2016-12-01T00:18:00Z,27.2970,-97.4049,0.0,5.5,56.0,6.4,'1111122,1111122,1111122' 
TCOON,ioos:station:TCOON:068:1,2016-12-01T00:24:00Z,27.2970,-97.4049,0.0,5.1,51.0,6.2,'11111222,11111222,11111222' 
TCOON,ioos:station:TCOON:068:1,2016-12-01T00:30:00Z,27.2970,-97.4049,0.0,6.1,50.0,6.9,'11111222,11111222,11111222' 
TCOON,ioos:station:TCOON:068:1,2016-12-01T00:36:00Z,27.2970,-97.4049,0.0,5.2,47.0,6.8,'11111222,11111222,11111222' 
TCOON,ioos:station:TCOON:068:1,2016-12-01T00:42:00Z,27.2970,-97.4049,0.0,5.6,44.0,6.6,'11111222,11111222,11111222' 
TCOON,ioos:station:TCOON:068:1,2016-12-01T00:48:00Z,27.2970,-97.4049,0.0,5.4,47.0,6.7,'11111222,11111222,11111222' 
TCOON,ioos:station:TCOON:068:1,2016-12-01T00:54:00Z,27.2970,-97.4049,0.0,5.4,49.0,6.3,'11111222,11111222,11111222' 
TCOON,ioos:station:TCOON:068:1,2016-12-01T01:00:00Z,27.2970,-97.4049,0.0,6.6,45.0,7.4,'11111222,11111222,11111222' 
TCOON,ioos:station:TCOON:068:1,2016-12-01T01:06:00Z,27.2970,-97.4049,0.0,5.2,46.0,6.6,'11111222,11111222,11111222' 
TCOON,ioos:station:TCOON:068:1,2016-12-01T01:12:00Z,27.2970,-97.4049,0.0,5.5,45.0,6.5,'11111222,11111222,11111222' 
TCOON,ioos:station:TCOON:068:1,2016-12-01T01:18:00Z,27.2970,-97.4049,0.0,5.5,45.0,6.5,'1111122,1111122,1111122' 
TCOON,ioos:station:TCOON:068:1,2016-12-01T01:24:00Z,27.2970,-97.4049,0.0,5.3,53.0,6.5,'11111222,11111222,11111222' 
TCOON,ioos:station:TCOON:068:1,2016-12-01T01:30:00Z,27.2970,-97.4049,0.0,5.8,56.0,6.6,'11111222,11111222,11111222' 
TCOON,ioos:station:TCOON:068:1,2016-12-01T01:36:00Z,27.2970,-97.4049,0.0,5.6,52.0,6.4,'11111222,11111222,11111222' 
TCOON,ioos:station:TCOON:068:1,2016-12-01T01:42:00Z,27.2970,-97.4049,0.0,5.8,56.0,6.8,'11111222,11111222,11111222' 
TCOON,ioos:station:TCOON:068:1,2016-12-01T01:48:00Z,27.2970,-97.4049,0.0,5.4,50.0,6.9,'11111222,11111222,11111222' 
TCOON,ioos:station:TCOON:068:1,2016-12-01T01:54:00Z,27.2970,-97.4049,0.0,4.8,43.0,6.1,'11111222,11111222,11111222' 
TCOON,ioos:station:TCOON:068:1,2016-12-01T02:00:00Z,27.2970,-97.4049,0.0,5.3,40.0,6.0,'11111222,11111222,11111222' 
TCOON,ioos:station:TCOON:068:1,2016-12-01T02:06:00Z,27.2970,-97.4049,0.0,5.2,50.0,6.3,'11111222,11111222,11111222' 
TCOON,ioos:station:TCOON:068:1,2016-12-01T02:12:00Z,27.2970,-97.4049,0.0,4.6,43.0,5.5,'11111222,11111222,11111222' 
TCOON,ioos:station:TCOON:068:1,2016-12-01T02:18:00Z,27.2970,-97.4049,0.0,4.6,43.0,5.5,'1111122,1111122,1111122' 
TCOON,ioos:station:TCOON:068:1,2016-12-01T02:24:00Z,27.2970,-97.4049,0.0,4.5,42.0,5.7,'11111222,11111222,11111222' 
TCOON,ioos:station:TCOON:068:1,2016-12-01T02:30:00Z,27.2970,-97.4049,0.0,4.4,47.0,5.4,'11111222,11111222,11111222' 
TCOON,ioos:station:TCOON:068:1,2016-12-01T02:36:00Z,27.2970,-97.4049,0.0,4.6,46.0,5.7,'11111222,11111222,11111222' 
TCOON,ioos:station:TCOON:068:1,2016-12-01T02:42:00Z,27.2970,-97.4049,0.0,4.4,48.0,5.8,'11111222,11111222,11111222' 
TCOON,ioos:station:TCOON:068:1,2016-12-01T02:48:00Z,27.2970,-97.4049,0.0,4.4,48.0,5.1,'11111222,11111222,11111222' 
TCOON,ioos:station:TCOON:068:1,2016-12-01T02:54:00Z,27.2970,-97.4049,0.0,5.4,49.0,6.5,'11111222,11111222,11111222' 
TCOON,ioos:station:TCOON:068:1,2016-12-01T03:00:00Z,27.2970,-97.4049,0.0,4.3,50.0,5.6,'11111222,11111222,11111222' 
TCOON,ioos:station:TCOON:068:1,2016-12-01T03:06:00Z,27.2970,-97.4049,0.0,4.6,45.0,5.1,'11111222,11111222,11111222' 
TCOON,ioos:station:TCOON:068:1,2016-12-01T03:12:00Z,27.2970,-97.4049,0.0,4.6,45.0,5.3,'11111222,11111222,11111222' 
TCOON,ioos:station:TCOON:068:1,2016-12-01T03:18:00Z,27.2970,-97.4049,0.0,4.6,45.0,5.3,'1111122,1111122,1111122' 
TCOON,ioos:station:TCOON:068:1,2016-12-01T03:24:00Z,27.2970,-97.4049,0.0,5.1,44.0,5.8,'11111222,11111222,11111222' 
TCOON,ioos:station:TCOON:068:1,2016-12-01T03:30:00Z,27.2970,-97.4049,0.0,4.6,45.0,5.9,'11111222,11111222,11111222' 
TCOON,ioos:station:TCOON:068:1,2016-12-01T03:36:00Z,27.2970,-97.4049,0.0,4.3,42.0,5.4,'11111222,11111222,11111222' 
TCOON,ioos:station:TCOON:068:1,2016-12-01T03:42:00Z,27.2970,-97.4049,0.0,4.2,44.0,5.3,'11111222,11111222,11111222' 
TCOON,ioos:station:TCOON:068:1,2016-12-01T03:48:00Z,27.2970,-97.4049,0.0,3.9,37.0,5.2,'11111222,11111222,11111222' 
TCOON,ioos:station:TCOON:068:1,2016-12-01T03:54:00Z,27.2970,-97.4049,0.0,4.1,44.0,4.9,'11111222,11111222,11111222' 
TCOON,ioos:station:TCOON:068:1,2016-12-01T04:00:00Z,27.2970,-97.4049,0.0,4.1,42.0,5.0,'11111222,11111222,11111222' 
TCOON,ioos:station:TCOON:068:1,2016-12-01T04:06:00Z,27.2970,-97.4049,0.0,4.6,41.0,5.4,'11111222,11111222,11111222' 
TCOON,ioos:station:TCOON:068:1,2016-12-01T04:12:00Z,27.2970,-97.4049,0.0,4.5,45.0,5.6,'11111222,11111222,11111222' 
TCOON,ioos:station:TCOON:068:1,2016-12-01T04:18:00Z,27.2970,-97.4049,0.0,4.5,45.0,5.6,'1111122,1111122,1111122' 
TCOON,ioos:station:TCOON:068:1,2016-12-01T04:24:00Z,27.2970,-97.4049,0.0,4.9,45.0,5.7,'11111222,11111222,11111222' 
TCOON,ioos:station:TCOON:068:1,2016-12-01T04:30:00Z,27.2970,-97.4049,0.0,4.6,51.0,5.3,'11111222,11111222,11111222' 
TCOON,ioos:station:TCOON:068:1,2016-12-01T04:36:00Z,27.2970,-97.4049,0.0,4.4,47.0,5.0,'11111222,11111222,11111222' 
TCOON,ioos:station:TCOON:068:1,2016-12-01T04:42:00Z,27.2970,-97.4049,0.0,4.0,49.0,5.4,'11111222,11111222,11111222' 
TCOON,ioos:station:TCOON:068:1,2016-12-01T04:48:00Z,27.2970,-97.4049,0.0,4.5,49.0,5.3,'11111222,11111222,11111222' 
TCOON,ioos:station:TCOON:068:1,2016-12-01T04:54:00Z,27.2970,-97.4049,0.0,4.7,46.0,5.4,'11111222,11111222,11111222' 
TCOON,ioos:station:TCOON:068:1,2016-12-01T05:00:00Z,27.2970,-97.4049,0.0,4.6,42.0,5.3,'11111222,11111222,11111222' 
TCOON,ioos:station:TCOON:068:1,2016-12-01T05:06:00Z,27.2970,-97.4049,0.0,5.0,45.0,5.9,'11111222,11111222,11111222' 
TCOON,ioos:station:TCOON:068:1,2016-12-01T05:12:00Z,27.2970,-97.4049,0.0,4.9,42.0,5.7,'11111222,11111222,11111222' 
TCOON,ioos:station:TCOON:068:1,2016-12-01T05:18:00Z,27.2970,-97.4049,0.0,4.9,42.0,5.7,'1111122,1111122,1111122' 
TCOON,ioos:station:TCOON:068:1,2016-12-01T05:24:00Z,27.2970,-97.4049,0.0,5.6,49.0,6.3,'11111222,11111222,11111222' 
TCOON,ioos:station:TCOON:068:1,2016-12-01T05:30:00Z,27.2970,-97.4049,0.0,5.1,45.0,6.1,'11111222,11111222,11111222' 
TCOON,ioos:station:TCOON:068:1,2016-12-01T05:36:00Z,27.2970,-97.4049,0.0,4.8,50.0,6.5,'11111222,11111222,11111222' 
TCOON,ioos:station:TCOON:068:1,2016-12-01T05:42:00Z,27.2970,-97.4049,0.0,4.6,51.0,5.7,'11111222,11111222,11111222' 
TCOON,ioos:station:TCOON:068:1,2016-12-01T05:48:00Z,27.2970,-97.4049,0.0,5.1,50.0,5.8,'11111222,11111222,11111222' 
TCOON,ioos:station:TCOON:068:1,2016-12-01T05:54:00Z,27.2970,-97.4049,0.0,4.9,48.0,5.9,'11111222,11111222,11111222' 
TCOON,ioos:station:TCOON:068:1,2016-12-01T06:00:00Z,27.2970,-97.4049,0.0,5.5,51.0,6.3,'11111222,11111222,11111222' 
TCOON,ioos:station:TCOON:068:1,2016-12-01T06:06:00Z,27.2970,-97.4049,0.0,5.4,52.0,6.0,'11111222,11111222,11111222' 
TCOON,ioos:station:TCOON:068:1,2016-12-01T06:12:00Z,27.2970,-97.4049,0.0,5.5,52.0,6.5,'11111222,11111222,11111222' 
TCOON,ioos:station:TCOON:068:1,2016-12-01T06:18:00Z,27.2970,-97.4049,0.0,5.5,52.0,6.5,'1111122,1111122,1111122' 
TCOON,ioos:station:TCOON:068:1,2016-12-01T06:24:00Z,27.2970,-97.4049,0.0,6.0,46.0,7.1,'11111222,11111222,11111222' 
TCOON,ioos:station:TCOON:068:1,2016-12-01T06:30:00Z,27.2970,-97.4049,0.0,5.5,51.0,7.2,'11111222,11111222,11111222' 
TCOON,ioos:station:TCOON:068:1,2016-12-01T06:36:00Z,27.2970,-97.4049,0.0,6.3,47.0,7.0,'11111222,11111222,11111222' 
TCOON,ioos:station:TCOON:068:1,2016-12-01T06:42:00Z,27.2970,-97.4049,0.0,6.0,53.0,8.5,'11111222,11111222,11111222' 
TCOON,ioos:station:TCOON:068:1,2016-12-01T06:48:00Z,27.2970,-97.4049,0.0,4.7,52.0,6.5,'11111222,11111222,11111222' 
TCOON,ioos:station:TCOON:068:1,2016-12-01T06:54:00Z,27.2970,-97.4049,0.0,5.6,53.0,6.4,'11111222,11111222,11111222' 
TCOON,ioos:station:TCOON:068:1,2016-12-01T07:00:00Z,27.2970,-97.4049,0.0,5.7,53.0,6.6,'11111222,11111222,11111222' 
TCOON,ioos:station:TCOON:068:1,2016-12-01T07:06:00Z,27.2970,-97.4049,0.0,5.3,49.0,6.7,'11111222,11111222,11111222' 
TCOON,ioos:station:TCOON:068:1,2016-12-01T07:12:00Z,27.2970,-97.4049,0.0,5.5,52.0,6.1,'11111222,11111222,11111222' 
TCOON,ioos:station:TCOON:068:1,2016-12-01T07:18:00Z,27.2970,-97.4049,0.0,5.5,52.0,6.1,'1111122,1111122,1111122' 
TCOON,ioos:station:TCOON:068:1,2016-12-01T07:24:00Z,27.2970,-97.4049,0.0,4.5,57.0,6.2,'11111222,11111222,11111222' 
TCOON,ioos:station:TCOON:068:1,2016-12-01T07:30:00Z,27.2970,-97.4049,0.0,5.0,55.0,5.8,'11111222,11111222,11111222' 
TCOON,ioos:station:TCOON:068:1,2016-12-01T07:36:00Z,27.2970,-97.4049,0.0,5.1,62.0,5.8,'11111222,11111222,11111222' 
TCOON,ioos:station:TCOON:068:1,2016-12-01T07:42:00Z,27.2970,-97.4049,0.0,4.8,56.0,5.7,'11111222,11111222,11111222' 
TCOON,ioos:station:TCOON:068:1,2016-12-01T07:48:00Z,27.2970,-97.4049,0.0,5.1,61.0,6.2,'11111222,11111222,11111222' 
TCOON,ioos:station:TCOON:068:1,2016-12-01T07:54:00Z,27.2970,-97.4049,0.0,5.0,52.0,6.1,'11111222,11111222,11111222' 
TCOON,ioos:station:TCOON:068:1,2016-12-01T08:00:00Z,27.2970,-97.4049,0.0,4.7,53.0,5.8,'11111222,11111222,11111222' 
TCOON,ioos:station:TCOON:068:1,2016-12-01T08:06:00Z,27.2970,-97.4049,0.0,4.3,53.0,5.8,'11111222,11111222,11111222' 
TCOON,ioos:station:TCOON:068:1,2016-12-01T08:12:00Z,27.2970,-97.4049,0.0,4.4,59.0,5.1,'11111222,11111222,11111222' 
TCOON,ioos:station:TCOON:068:1,2016-12-01T08:18:00Z,27.2970,-97.4049,0.0,4.4,59.0,5.1,'1111122,1111122,1111122' 
TCOON,ioos:station:TCOON:068:1,2016-12-01T08:24:00Z,27.2970,-97.4049,0.0,4.8,63.0,5.5,'11111222,11111222,11111222' 
TCOON,ioos:station:TCOON:068:1,2016-12-01T08:30:00Z,27.2970,-97.4049,0.0,5.3,58.0,5.8,'11111222,11111222,11111222' 
TCOON,ioos:station:TCOON:068:1,2016-12-01T08:36:00Z,27.2970,-97.4049,0.0,5.6,53.0,6.7,'11111222,11111222,11111222' 
TCOON,ioos:station:TCOON:068:1,2016-12-01T08:42:00Z,27.2970,-97.4049,0.0,5.3,45.0,6.6,'11111222,11111222,11111222' 
TCOON,ioos:station:TCOON:068:1,2016-12-01T08:48:00Z,27.2970,-97.4049,0.0,4.7,53.0,6.6,'11111222,11111222,11111222' 
TCOON,ioos:station:TCOON:068:1,2016-12-01T08:54:00Z,27.2970,-97.4049,0.0,4.3,58.0,5.3,'11111222,11111222,11111222' 
TCOON,ioos:station:TCOON:068:1,2016-12-01T09:00:00Z,27.2970,-97.4049,0.0,5.5,62.0,6.3,'11111222,11111222,11111222' 
TCOON,ioos:station:TCOON:068:1,2016-12-01T09:06:00Z,27.2970,-97.4049,0.0,4.9,66.0,5.9,'11111222,11111222,11111222' 
TCOON,ioos:station:TCOON:068:1,2016-12-01T09:12:00Z,27.2970,-97.4049,0.0,5.2,69.0,6.0,'11111222,11111222,11111222' 
TCOON,ioos:station:TCOON:068:1,2016-12-01T09:18:00Z,27.2970,-97.4049,0.0,5.2,69.0,6.0,'1111122,1111122,1111122' 
TCOON,ioos:station:TCOON:068:1,2016-12-01T09:24:00Z,27.2970,-97.4049,0.0,5.3,61.0,6.8,'11111222,11111222,11111222' 
TCOON,ioos:station:TCOON:068:1,2016-12-01T09:30:00Z,27.2970,-97.4049,0.0,6.2,65.0,6.8,'11111222,11111222,11111222' 
TCOON,ioos:station:TCOON:068:1,2016-12-01T09:36:00Z,27.2970,-97.4049,0.0,6.1,67.0,6.8,'11111222,11111222,11111222' 
TCOON,ioos:station:TCOON:068:1,2016-12-01T09:42:00Z,27.2970,-97.4049,0.0,6.0,66.0,6.6,'11111222,11111222,11111222' 
TCOON,ioos:station:TCOON:068:1,2016-12-01T09:48:00Z,27.2970,-97.4049,0.0,5.3,66.0,6.6,'11111222,11111222,11111222' 
TCOON,ioos:station:TCOON:068:1,2016-12-01T09:54:00Z,27.2970,-97.4049,0.0,5.8,68.0,6.8,'11111222,11111222,11111222' 
TCOON,ioos:station:TCOON:068:1,2016-12-01T10:00:00Z,27.2970,-97.4049,0.0,5.7,66.0,7.1,'11111222,11111222,11111222' 
TCOON,ioos:station:TCOON:068:1,2016-12-01T10:06:00Z,27.2970,-97.4049,0.0,5.6,65.0,6.9,'11111222,11111222,11111222' 
TCOON,ioos:station:TCOON:068:1,2016-12-01T10:12:00Z,27.2970,-97.4049,0.0,6.0,67.0,6.9,'11111222,11111222,11111222' 
TCOON,ioos:station:TCOON:068:1,2016-12-01T10:18:00Z,27.2970,-97.4049,0.0,6.0,67.0,6.9,'1111122,1111122,1111122' 
TCOON,ioos:station:TCOON:068:1,2016-12-01T10:24:00Z,27.2970,-97.4049,0.0,6.8,64.0,7.9,'11111222,11111222,11111222' 
TCOON,ioos:station:TCOON:068:1,2016-12-01T10:30:00Z,27.2970,-97.4049,0.0,5.6,64.0,6.5,'11111222,11111222,11111222' 
TCOON,ioos:station:TCOON:068:1,2016-12-01T10:36:00Z,27.2970,-97.4049,0.0,5.3,65.0,6.5,'11111222,11111222,11111222' 
TCOON,ioos:station:TCOON:068:1,2016-12-01T10:42:00Z,27.2970,-97.4049,0.0,5.1,65.0,6.0,'11111222,11111222,11111222' 
TCOON,ioos:station:TCOON:068:1,2016-12-01T10:48:00Z,27.2970,-97.4049,0.0,5.7,63.0,6.6,'11111222,11111222,11111222' 
TCOON,ioos:station:TCOON:068:1,2016-12-01T10:54:00Z,27.2970,-97.4049,0.0,5.2,70.0,6.5,'11111222,11111222,11111222' 
TCOON,ioos:station:TCOON:068:1,2016-12-01T11:00:00Z,27.2970,-97.4049,0.0,5.3,71.0,6.4,'11111222,11111222,11111222' 
TCOON,ioos:station:TCOON:068:1,2016-12-01T11:06:00Z,27.2970,-97.4049,0.0,6.8,66.0,7.8,'11111222,11111222,11111222' 
TCOON,ioos:station:TCOON:068:1,2016-12-01T11:12:00Z,27.2970,-97.4049,0.0,5.7,70.0,6.9,'11111222,11111222,11111222' 
TCOON,ioos:station:TCOON:068:1,2016-12-01T11:18:00Z,27.2970,-97.4049,0.0,5.7,70.0,6.9,'1111122,1111122,1111122' 
TCOON,ioos:station:TCOON:068:1,2016-12-01T11:24:00Z,27.2970,-97.4049,0.0,5.9,66.0,7.1,'11111222,11111222,11111222' 
TCOON,ioos:station:TCOON:068:1,2016-12-01T11:30:00Z,27.2970,-97.4049,0.0,6.4,65.0,7.1,'11111222,11111222,11111222' 
TCOON,ioos:station:TCOON:068:1,2016-12-01T11:36:00Z,27.2970,-97.4049,0.0,6.6,66.0,7.4,'11111222,11111222,11111222' 
TCOON,ioos:station:TCOON:068:1,2016-12-01T11:42:00Z,27.2970,-97.4049,0.0,6.2,60.0,7.4,'11111222,11111222,11111222' 
TCOON,ioos:station:TCOON:068:1,2016-12-01T11:48:00Z,27.2970,-97.4049,0.0,5.9,61.0,7.1,'11111222,11111222,11111222' 
TCOON,ioos:station:TCOON:068:1,2016-12-01T11:54:00Z,27.2970,-97.4049,0.0,6.1,67.0,6.8,'11111222,11111222,11111222' 
TCOON,ioos:station:TCOON:068:1,2016-12-01T12:00:00Z,27.2970,-97.4049,0.0,5.4,61.0,6.4,'11111222,11111222,11111222' 
TCOON,ioos:station:TCOON:068:1,2016-12-01T12:06:00Z,27.2970,-97.4049,0.0,5.6,69.0,7.3,'11111222,11111222,11111222' 
TCOON,ioos:station:TCOON:068:1,2016-12-01T12:12:00Z,27.2970,-97.4049,0.0,6.0,61.0,7.0,'11111222,11111222,11111222' 
TCOON,ioos:station:TCOON:068:1,2016-12-01T12:18:00Z,27.2970,-97.4049,0.0,6.0,61.0,7.0,'1111122,1111122,1111122' 
TCOON,ioos:station:TCOON:068:1,2016-12-01T12:24:00Z,27.2970,-97.4049,0.0,5.9,71.0,7.2,'11111222,11111222,11111222' 
TCOON,ioos:station:TCOON:068:1,2016-12-01T12:30:00Z,27.2970,-97.4049,0.0,6.4,66.0,7.6,'11111222,11111222,11111222' 
TCOON,ioos:station:TCOON:068:1,2016-12-01T12:36:00Z,27.2970,-97.4049,0.0,5.9,62.0,7.0,'11111222,11111222,11111222' 
TCOON,ioos:station:TCOON:068:1,2016-12-01T12:42:00Z,27.2970,-97.4049,0.0,5.9,62.0,6.6,'11111222,11111222,11111222' 
TCOON,ioos:station:TCOON:068:1,2016-12-01T12:48:00Z,27.2970,-97.4049,0.0,6.0,65.0,6.9,'11111222,11111222,11111222' 
TCOON,ioos:station:TCOON:068:1,2016-12-01T12:54:00Z,27.2970,-97.4049,0.0,4.7,60.0,6.0,'11111222,11111222,11111222' 
TCOON,ioos:station:TCOON:068:1,2016-12-01T13:00:00Z,27.2970,-97.4049,0.0,5.3,64.0,6.5,'11111222,11111222,11111222' 
TCOON,ioos:station:TCOON:068:1,2016-12-01T13:06:00Z,27.2970,-97.4049,0.0,5.3,62.0,6.5,'11111222,11111222,11111222' 
TCOON,ioos:station:TCOON:068:1,2016-12-01T13:12:00Z,27.2970,-97.4049,0.0,4.7,69.0,5.8,'11111222,11111222,11111222' 
TCOON,ioos:station:TCOON:068:1,2016-12-01T13:18:00Z,27.2970,-97.4049,0.0,4.7,69.0,5.8,'1111122,1111122,1111122' 
TCOON,ioos:station:TCOON:068:1,2016-12-01T13:24:00Z,27.2970,-97.4049,0.0,5.0,74.0,5.8,'11111222,11111222,11111222' 
TCOON,ioos:station:TCOON:068:1,2016-12-01T13:30:00Z,27.2970,-97.4049,0.0,5.2,77.0,6.0,'11111222,11111222,11111222' 
TCOON,ioos:station:TCOON:068:1,2016-12-01T13:36:00Z,27.2970,-97.4049,0.0,4.8,78.0,6.3,'11111222,11111222,11111222' 
TCOON,ioos:station:TCOON:068:1,2016-12-01T13:42:00Z,27.2970,-97.4049,0.0,5.1,74.0,6.3,'11111222,11111222,11111222' 
TCOON,ioos:station:TCOON:068:1,2016-12-01T13:48:00Z,27.2970,-97.4049,0.0,5.0,80.0,6.9,'11111222,11111222,11111222' 
TCOON,ioos:station:TCOON:068:1,2016-12-01T13:54:00Z,27.2970,-97.4049,0.0,5.2,75.0,6.4,'11111222,11111222,11111222' 
TCOON,ioos:station:TCOON:068:1,2016-12-01T14:00:00Z,27.2970,-97.4049,0.0,6.2,86.0,6.9,'11111222,11111222,11111222' 
TCOON,ioos:station:TCOON:068:1,2016-12-01T14:06:00Z,27.2970,-97.4049,0.0,5.6,77.0,7.0,'11111222,11111222,11111222' 
TCOON,ioos:station:TCOON:068:1,2016-12-01T14:12:00Z,27.2970,-97.4049,0.0,6.5,84.0,7.7,'11111222,11111222,11111222' 
TCOON,ioos:station:TCOON:068:1,2016-12-01T14:18:00Z,27.2970,-97.4049,0.0,6.5,84.0,7.7,'1111122,1111122,1111122' 
TCOON,ioos:station:TCOON:068:1,2016-12-01T14:24:00Z,27.2970,-97.4049,0.0,7.7,81.0,8.9,'11111222,11111222,11111222' 
TCOON,ioos:station:TCOON:068:1,2016-12-01T14:30:00Z,27.2970,-97.4049,0.0,6.5,77.0,7.8,'11111222,11111222,11111222' 
TCOON,ioos:station:TCOON:068:1,2016-12-01T14:36:00Z,27.2970,-97.4049,0.0,7.1,85.0,8.3,'11111222,11111222,11111222' 
TCOON,ioos:station:TCOON:068:1,2016-12-01T14:42:00Z,27.2970,-97.4049,0.0,6.7,84.0,7.7,'11111222,11111222,11111222' 
TCOON,ioos:station:TCOON:068:1,2016-12-01T14:48:00Z,27.2970,-97.4049,0.0,7.2,80.0,8.3,'11111222,11111222,11111222' 
TCOON,ioos:station:TCOON:068:1,2016-12-01T14:54:00Z,27.2970,-97.4049,0.0,6.7,86.0,8.3,'11111222,11111222,11111222' 
TCOON,ioos:station:TCOON:068:1,2016-12-01T15:00:00Z,27.2970,-97.4049,0.0,7.2,76.0,9.0,'11111222,11111222,11111222' 
TCOON,ioos:station:TCOON:068:1,2016-12-01T15:06:00Z,27.2970,-97.4049,0.0,7.1,80.0,8.3,'11111222,11111222,11111222' 
TCOON,ioos:station:TCOON:068:1,2016-12-01T15:12:00Z,27.2970,-97.4049,0.0,6.5,80.0,8.2,'11111222,11111222,11111222' 
TCOON,ioos:station:TCOON:068:1,2016-12-01T15:18:00Z,27.2970,-97.4049,0.0,6.5,80.0,8.2,'1111122,1111122,1111122' 
TCOON,ioos:station:TCOON:068:1,2016-12-01T15:24:00Z,27.2970,-97.4049,0.0,6.6,85.0,8.2,'11111222,11111222,11111222' 
TCOON,ioos:station:TCOON:068:1,2016-12-01T15:30:00Z,27.2970,-97.4049,0.0,6.5,86.0,7.8,'11111222,11111222,11111222' 
TCOON,ioos:station:TCOON:068:1,2016-12-01T15:36:00Z,27.2970,-97.4049,0.0,6.9,89.0,8.5,'11111222,11111222,11111222' 
TCOON,ioos:station:TCOON:068:1,2016-12-01T15:42:00Z,27.2970,-97.4049,0.0,6.8,82.0,8.0,'11111222,11111222,11111222' 
TCOON,ioos:station:TCOON:068:1,2016-12-01T15:48:00Z,27.2970,-97.4049,0.0,7.2,83.0,8.6,'11111222,11111222,11111222' 
TCOON,ioos:station:TCOON:068:1,2016-12-01T15:54:00Z,27.2970,-97.4049,0.0,6.3,81.0,7.6,'11111222,11111222,11111222' 
TCOON,ioos:station:TCOON:068:1,2016-12-01T16:00:00Z,27.2970,-97.4049,0.0,5.9,86.0,8.3,'11111222,11111222,11111222' 
TCOON,ioos:station:TCOON:068:1,2016-12-01T16:06:00Z,27.2970,-97.4049,0.0,6.4,95.0,8.0,'11111222,11111222,11111222' 
TCOON,ioos:station:TCOON:068:1,2016-12-01T16:12:00Z,27.2970,-97.4049,0.0,5.8,97.0,6.9,'11111222,11111222,11111222' 
TCOON,ioos:station:TCOON:068:1,2016-12-01T16:18:00Z,27.2970,-97.4049,0.0,5.8,97.0,6.9,'1111122,1111122,1111122' 
TCOON,ioos:station:TCOON:068:1,2016-12-01T16:24:00Z,27.2970,-97.4049,0.0,6.9,86.0,8.0,'11111222,11111222,11111222' 
TCOON,ioos:station:TCOON:068:1,2016-12-01T16:30:00Z,27.2970,-97.4049,0.0,7.1,85.0,7.9,'11111222,11111222,11111222' 
TCOON,ioos:station:TCOON:068:1,2016-12-01T16:36:00Z,27.2970,-97.4049,0.0,6.3,83.0,7.4,'11111222,11111222,11111222' 
TCOON,ioos:station:TCOON:068:1,2016-12-01T16:42:00Z,27.2970,-97.4049,0.0,5.3,97.0,8.3,'11111222,11111222,11111222' 
TCOON,ioos:station:TCOON:068:1,2016-12-01T16:48:00Z,27.2970,-97.4049,0.0,5.0,94.0,6.4,'11111222,11111222,11111222' 
TCOON,ioos:station:TCOON:068:1,2016-12-01T16:54:00Z,27.2970,-97.4049,0.0,5.9,93.0,7.0,'11111222,11111222,11111222' 
TCOON,ioos:station:TCOON:068:1,2016-12-01T17:00:00Z,27.2970,-97.4049,0.0,4.9,95.0,6.6,'11111222,11111222,11111222' 
TCOON,ioos:station:TCOON:068:1,2016-12-01T17:06:00Z,27.2970,-97.4049,0.0,6.1,97.0,7.5,'11111222,11111222,11111222' 
TCOON,ioos:station:TCOON:068:1,2016-12-01T17:12:00Z,27.2970,-97.4049,0.0,6.3,96.0,7.6,'11111222,11111222,11111222' 
TCOON,ioos:station:TCOON:068:1,2016-12-01T17:18:00Z,27.2970,-97.4049,0.0,6.2,85.0,8.3,'11111222,11111222,11111222' 
TCOON,ioos:station:TCOON:068:1,2016-12-01T17:24:00Z,27.2970,-97.4049,0.0,6.3,92.0,8.0,'11111222,11111222,11111222' 
TCOON,ioos:station:TCOON:068:1,2016-12-01T17:30:00Z,27.2970,-97.4049,0.0,6.4,97.0,8.3,'11111222,11111222,11111222' 
TCOON,ioos:station:TCOON:068:1,2016-12-01T17:36:00Z,27.2970,-97.4049,0.0,6.4,97.0,8.3,'1111122,1111122,1111122' 
TCOON,ioos:station:TCOON:068:1,2016-12-01T17:42:00Z,27.2970,-97.4049,0.0,6.4,93.0,7.9,'11111222,11111222,11111222' 
TCOON,ioos:station:TCOON:068:1,2016-12-01T17:48:00Z,27.2970,-97.4049,0.0,6.4,88.0,7.9,'11111222,11111222,11111222' 
TCOON,ioos:station:TCOON:068:1,2016-12-01T17:54:00Z,27.2970,-97.4049,0.0,7.4,83.0,8.5,'11111222,11111222,11111222' 
TCOON,ioos:station:TCOON:068:1,2016-12-01T18:00:00Z,27.2970,-97.4049,0.0,6.2,99.0,8.0,'11111222,11111222,11111222' 
TCOON,ioos:station:TCOON:068:1,2016-12-01T18:06:00Z,27.2970,-97.4049,0.0,7.1,89.0,8.1,'11111222,11111222,11111222' 
TCOON,ioos:station:TCOON:068:1,2016-12-01T18:12:00Z,27.2970,-97.4049,0.0,7.3,89.0,8.2,'11111222,11111222,11111222' 
TCOON,ioos:station:TCOON:068:1,2016-12-01T18:18:00Z,27.2970,-97.4049,0.0,7.3,89.0,8.2,'1111122,1111122,1111122' 
TCOON,ioos:station:TCOON:068:1,2016-12-01T18:24:00Z,27.2970,-97.4049,0.0,6.7,90.0,8.8,'11111222,11111222,11111222' 
TCOON,ioos:station:TCOON:068:1,2016-12-01T18:30:00Z,27.2970,-97.4049,0.0,6.5,86.0,8.5,'11111222,11111222,11111222' 
TCOON,ioos:station:TCOON:068:1,2016-12-01T18:36:00Z,27.2970,-97.4049,0.0,7.6,89.0,8.3,'11111222,11111222,11111222' 
TCOON,ioos:station:TCOON:068:1,2016-12-01T18:42:00Z,27.2970,-97.4049,0.0,7.3,87.0,8.5,'11111222,11111222,11111222' 
TCOON,ioos:station:TCOON:068:1,2016-12-01T18:48:00Z,27.2970,-97.4049,0.0,5.7,93.0,8.2,'11111222,11111222,11111222' 
TCOON,ioos:station:TCOON:068:1,2016-12-01T18:54:00Z,27.2970,-97.4049,0.0,6.5,100.0,8.5,'11111222,11111222,11111222' 
TCOON,ioos:station:TCOON:068:1,2016-12-01T19:00:00Z,27.2970,-97.4049,0.0,7.5,91.0,8.5,'11111222,11111222,11111222' 
TCOON,ioos:station:TCOON:068:1,2016-12-01T19:06:00Z,27.2970,-97.4049,0.0,6.8,87.0,8.7,'11111222,11111222,11111222' 
TCOON,ioos:station:TCOON:068:1,2016-12-01T19:12:00Z,27.2970,-97.4049,0.0,6.8,86.0,8.3,'11111222,11111222,11111222' 
TCOON,ioos:station:TCOON:068:1,2016-12-01T19:18:00Z,27.2970,-97.4049,0.0,6.8,86.0,8.3,'1111122,1111122,1111122' 
TCOON,ioos:station:TCOON:068:1,2016-12-01T19:24:00Z,27.2970,-97.4049,0.0,6.4,94.0,7.6,'11111222,11111222,11111222' 
TCOON,ioos:station:TCOON:068:1,2016-12-01T19:30:00Z,27.2970,-97.4049,0.0,6.9,88.0,7.9,'11111222,11111222,11111222' 
TCOON,ioos:station:TCOON:068:1,2016-12-01T19:36:00Z,27.2970,-97.4049,0.0,6.2,83.0,7.7,'11111222,11111222,11111222' 
TCOON,ioos:station:TCOON:068:1,2016-12-01T19:42:00Z,27.2970,-97.4049,0.0,6.5,83.0,7.5,'11111222,11111222,11111222' 
TCOON,ioos:station:TCOON:068:1,2016-12-01T19:48:00Z,27.2970,-97.4049,0.0,6.6,84.0,7.6,'11111222,11111222,11111222' 
TCOON,ioos:station:TCOON:068:1,2016-12-01T19:54:00Z,27.2970,-97.4049,0.0,6.3,78.0,7.7,'11111222,11111222,11111222' 
TCOON,ioos:station:TCOON:068:1,2016-12-01T20:00:00Z,27.2970,-97.4049,0.0,6.1,91.0,7.9,'11111222,11111222,11111222' 
TCOON,ioos:station:TCOON:068:1,2016-12-01T20:06:00Z,27.2970,-97.4049,0.0,5.9,93.0,8.0,'11111222,11111222,11111222' 
TCOON,ioos:station:TCOON:068:1,2016-12-01T20:12:00Z,27.2970,-97.4049,0.0,6.7,92.0,8.1,'11111222,11111222,11111222' 
TCOON,ioos:station:TCOON:068:1,2016-12-01T20:18:00Z,27.2970,-97.4049,0.0,6.7,92.0,8.1,'1111122,1111122,1111122' 
TCOON,ioos:station:TCOON:068:1,2016-12-01T20:24:00Z,27.2970,-97.4049,0.0,6.4,99.0,8.2,'11111222,11111222,11111222' 
TCOON,ioos:station:TCOON:068:1,2016-12-01T20:30:00Z,27.2970,-97.4049,0.0,7.0,90.0,8.0,'11111222,11111222,11111222' 